[[{"header":{"parameterUnit":"m.s-1","parameterCategory":1,"la1":30.2991,"la2":30.254,"lo1":-89.0895,"lo2":-89.0444,"dy":0.0017,"dx":0.0017,"nx":28,"ny":28,"refTime":"2023-09-12T03:00:00:Z","depth":0,"parameterNumber":2,"parameterNumberName":"U-component_of_WINDS"},"data":[0,0,0,0,0,0,0,0,0,0,0,0,0,0,0,0,0,0,0,0,0,0,0,0,0,0,0,0,0,0,0,0,0,0,0,0,0,0,0,0,0,0,0,0,0,0,0,0,0,0,0,0,0,0,0,0,0,0,-1.2455,-1.2455,0,-1.2477,-1.2477,-1.2478,-1.2489,-1.2488,-1.2488,-1.2488,-1.2511,-1.2512,-1.2512,0,0,0,0,0,0,0,0,0,0,0,0,0,-1.2421,-1.2422,-1.2455,-1.2455,-1.2455,-1.2477,-1.2477,-1.2478,-1.2489,-1.2488,-1.2488,-1.2488,-1.2511,-1.2512,-1.2512,0,0,0,0,0,0,0,0,0,0,0,0,0,-1.2439,-1.2422,-1.2455,-1.2463,-1.2464,-1.2477,-1.2477,-1.2478,-1.2489,-1.2488,-1.2488,-1.2488,-1.2511,-1.2512,-1.2512,-1.2518,0,0,-1.2515,-1.2516,0,0,0,0,0,0,0,0,-1.2438,-1.244,-1.2462,-1.2463,-1.2464,-1.248,-1.2474,-1.2491,-1.2489,-1.2479,-1.2488,-1.2488,-1.2501,-1.2502,-1.2507,-1.2519,-1.252,-1.2515,-1.2516,-1.2516,-1.2516,0,0,0,0,0,0,0,-1.2437,-1.2439,-1.2464,-1.2462,-1.2463,-1.2466,-1.2468,-1.2477,-1.249,-1.248,-1.2481,-1.2483,-1.2501,-1.2506,-1.2507,-1.2521,-1.2515,-1.2516,-1.2517,-1.2517,-1.2539,-1.2539,0,0,0,0,0,0,-1.2434,-1.2438,-1.2463,-1.2464,-1.2451,-1.2467,-1.2469,-1.2475,-1.249,-1.2492,-1.2483,-1.2484,-1.2504,-1.2506,-1.2508,-1.2516,-1.2516,-1.2517,-1.2518,-1.2539,-1.2539,-1.2539,0,0,0,0,0,0,-1.2433,-1.2436,-1.2462,-1.2451,-1.2455,-1.2467,-1.2473,-1.2475,-1.248,-1.2492,-1.2495,-1.2486,-1.2504,-1.2507,-1.2516,-1.2517,-1.2517,-1.2518,-1.2539,-1.2539,-1.2539,-1.2531,0,0,0,0,0,0,-1.2432,-1.2436,-1.2438,-1.2451,-1.2455,-1.2469,-1.2473,-1.2476,-1.2481,-1.2482,-1.2495,-1.2497,-1.2504,-1.2514,-1.2516,-1.2518,-1.2519,-1.2539,-1.2539,-1.2539,-1.2531,-1.2531,-1.2531,0,0,0,0,0,-1.2431,-1.2435,-1.2438,-1.2441,-1.2459,-1.2469,-1.2472,-1.248,-1.2481,-1.2484,-1.2492,-1.2497,-1.2516,-1.2515,-1.2518,-1.2519,-1.2539,-1.2539,-1.2539,-1.2531,-1.2531,-1.2531,0,0,0,0,0,0,-1.2422,-1.2437,-1.2441,-1.2449,-1.2458,-1.2471,-1.2475,-1.2479,-1.2488,-1.2488,-1.2498,-1.2501,-1.2509,-1.2515,-1.2513,-1.2526,-1.2528,-1.2528,-1.2521,-1.2521,-1.2521,-1.2519,-1.252,0,0,0,0,0,-1.2421,-1.2428,-1.2441,-1.2448,-1.2452,-1.2462,-1.2467,-1.2473,-1.2482,-1.2486,-1.2495,-1.2503,-1.2511,-1.2517,-1.2525,-1.2532,-1.2535,-1.2535,-1.2534,-1.2534,-1.2534,-1.2539,-1.2538,-1.2539,-1.2539,-1.2539,0,0,-1.2419,-1.2428,-1.2432,-1.2446,-1.2453,-1.2461,-1.2465,-1.2473,-1.2478,-1.2487,-1.2496,-1.2502,-1.2513,-1.2521,-1.2525,-1.2526,-1.2535,-1.2534,-1.2534,-1.2534,-1.2539,-1.2539,-1.2538,-1.2539,-1.2539,-1.2539,0,0,-1.2419,-1.2427,-1.2433,-1.244,-1.2451,-1.2458,-1.246,-1.2472,-1.2477,-1.2486,-1.2492,-1.2499,-1.2513,-1.252,-1.2525,-1.2527,-1.2532,-1.253,-1.2528,-1.2532,-1.2532,-1.2532,-1.2532,-1.2532,-1.253,-1.253,-1.253,0,-1.2416,-1.2427,-1.2436,-1.2443,-1.2448,-1.2457,-1.2463,-1.2469,-1.2482,-1.2486,-1.2487,-1.2504,-1.2512,-1.2522,-1.2522,-1.2526,-1.2528,-1.2528,-1.2531,-1.2531,-1.2531,-1.2532,-1.2532,-1.253,-1.253,-1.253,-1.253,0,-1.2422,-1.2429,-1.2433,-1.2445,-1.2451,-1.2458,-1.2467,-1.2472,-1.2477,-1.2484,-1.2493,-1.2502,-1.2512,-1.2515,-1.252,-1.2525,-1.2526,-1.2529,-1.2531,-1.2531,-1.2531,-1.2532,-1.2529,-1.2529,-1.2529,-1.2529,0,0,-1.2417,-1.2434,-1.2435,-1.2441,-1.2453,-1.2459,-1.2466,-1.2476,-1.248,-1.2488,-1.2494,-1.2505,-1.2508,-1.2514,-1.252,-1.2523,-1.2525,-1.2526,-1.2526,-1.2525,-1.2531,-1.2529,-1.2529,-1.2528,-1.2528,-1.2528,-1.253,0,-1.2419,-1.2432,-1.244,-1.2449,-1.2456,-1.2464,-1.2469,-1.2478,-1.2484,-1.2491,-1.2498,-1.2506,-1.2509,-1.2512,-1.2516,-1.2524,-1.2526,-1.2524,-1.2533,-1.2533,-1.253,-1.2529,-1.2527,-1.2529,-1.253,-1.253,-1.253,0,-1.2423,-1.2432,-1.2442,-1.2453,-1.2456,-1.2461,-1.2471,-1.2477,-1.2486,-1.2491,-1.2497,-1.2503,-1.251,-1.2512,-1.2522,-1.252,-1.2524,-1.2529,-1.2529,-1.253,-1.2532,-1.2531,-1.2529,-1.253,-1.2531,-1.2531,-1.2531,0,-1.2419,-1.2433,-1.244,-1.2445,-1.2458,-1.2462,-1.2467,-1.2477,-1.2482,-1.249,-1.2494,-1.2502,-1.2507,-1.2514,-1.2522,-1.2522,-1.2531,-1.2533,-1.2535,-1.2534,-1.2536,-1.2536,-1.2536,-1.2539,-1.2539,-1.2539,-1.2539,0,-1.2421,-1.2427,-1.2439,-1.2443,-1.245,-1.2459,-1.2465,-1.2471,-1.2479,-1.2485,-1.2492,-1.2498,-1.2508,-1.2515,-1.2521,-1.2528,-1.253,-1.2534,-1.2535,-1.2533,-1.2533,-1.2536,-1.2536,-1.2539,-1.2539,-1.2539,-1.2539,0,-1.2417,-1.2426,-1.2434,-1.2446,-1.2449,-1.2454,-1.2464,-1.2469,-1.2475,-1.2482,-1.2485,-1.2495,-1.2503,-1.2512,-1.2523,-1.2527,-1.2534,-1.2536,-1.2531,-1.2532,-1.2532,-1.2532,-1.2534,-1.2535,-1.2538,-1.2538,-1.2538,0,-1.2418,-1.2422,-1.2434,-1.2439,-1.2444,-1.2452,-1.2457,-1.2466,-1.2471,-1.2481,-1.2485,-1.2493,-1.2501,-1.2513,-1.2522,-1.253,-1.2532,-1.2533,-1.2534,-1.2531,-1.2532,-1.2532,-1.2533,-1.2532,-1.2532,-1.2532,-1.2532,0,-1.2418,-1.2421,-1.2429,-1.2437,-1.2444,-1.2451,-1.2458,-1.2462,-1.2472,-1.2477,-1.2486,-1.2491,-1.2502,-1.2511,-1.252,-1.2526,-1.2531,-1.2532,-1.2532,-1.253,-1.2527,-1.2529,-1.253,-1.2532,-1.2532,-1.2532,-1.2532,-1.2532,-1.2416,-1.2421,-1.243,-1.2438,-1.2444,-1.2451,-1.2456,-1.2463,-1.247,-1.248,-1.2484,-1.2492,-1.2501,-1.2514,-1.252,-1.2526,-1.2528,-1.2529,-1.2529,-1.2529,-1.2529,-1.2526,-1.2528,-1.2528,-1.2528,-1.2528,-1.2528,0,-1.2417,-1.2423,-1.243,-1.244,-1.2446,-1.245,-1.2458,-1.2463,-1.247,-1.2478,-1.2485,-1.2494,-1.2502,-1.2511,-1.252,-1.2523,-1.2526,-1.2525,-1.2525,-1.2526,-1.2527,-1.2525,-1.2523,-1.2523,-1.2523,-1.2523,-1.2523,-1.2523,-1.2417,-1.2425,-1.243,-1.244,-1.2446,-1.2454,-1.2459,-1.2465,-1.2471,-1.2481,-1.2488,-1.2494,-1.2502,-1.2511,-1.2518,-1.2521,-1.2524,-1.2522,-1.2525,-1.2526,-1.2526,-1.2527,-1.2525,-1.2523,-1.2523,-1.2524,-1.2524,-1.2524]},{"header":{"parameterUnit":"m.s-1","parameterCategory":1,"la1":30.2991,"la2":30.254,"lo1":-89.0895,"lo2":-89.0444,"dy":0.0017,"dx":0.0017,"nx":28,"ny":28,"refTime":"2023-09-12T03:00:00:Z","depth":0,"parameterNumber":3,"parameterNumberName":"V-component_of_WINDS"},"data":[0,0,0,0,0,0,0,0,0,0,0,0,0,0,0,0,0,0,0,0,0,0,0,0,0,0,0,0,0,0,0,0,0,0,0,0,0,0,0,0,0,0,0,0,0,0,0,0,0,0,0,0,0,0,0,0,0,0,5.3528,5.3528,0,5.3549,5.3549,5.3549,5.3519,5.3518,5.3517,5.3516,5.3534,5.3536,5.3537,0,0,0,0,0,0,0,0,0,0,0,0,0,5.3459,5.3461,5.3528,5.3528,5.3529,5.3549,5.3549,5.355,5.3519,5.3518,5.3516,5.3515,5.3534,5.3536,5.3537,0,0,0,0,0,0,0,0,0,0,0,0,0,5.3485,5.3461,5.3528,5.3516,5.3515,5.3549,5.3549,5.355,5.3519,5.3518,5.3516,5.3515,5.3533,5.3535,5.3538,5.3583,0,0,5.3544,5.3545,0,0,0,0,0,0,0,0,5.3484,5.3488,5.3517,5.3517,5.3516,5.353,5.3532,5.3561,5.352,5.3518,5.3516,5.3514,5.3534,5.3536,5.3543,5.3584,5.3585,5.3545,5.3546,5.3547,5.3548,0,0,0,0,0,0,0,5.3482,5.3487,5.3536,5.3518,5.3517,5.3509,5.3511,5.3537,5.3534,5.3518,5.3515,5.3519,5.3533,5.3541,5.3543,5.3585,5.3545,5.3546,5.3548,5.3549,5.3665,5.3666,0,0,0,0,0,0,5.3482,5.3486,5.3536,5.3537,5.3496,5.3511,5.3513,5.3527,5.3534,5.3534,5.352,5.3517,5.3538,5.3541,5.3544,5.3598,5.3547,5.3549,5.355,5.3663,5.3665,5.3667,0,0,0,0,0,0,5.3481,5.3487,5.3535,5.3511,5.3516,5.3514,5.3529,5.3528,5.3536,5.3536,5.3535,5.3529,5.3537,5.3541,5.3574,5.3598,5.355,5.3552,5.3661,5.3664,5.3666,5.3706,0,0,0,0,0,0,5.3479,5.3487,5.3505,5.3511,5.3518,5.3565,5.3531,5.353,5.354,5.3537,5.3544,5.3543,5.3536,5.3571,5.3576,5.36,5.3554,5.3659,5.3662,5.3665,5.3702,5.3709,5.3715,0,0,0,0,0,5.3477,5.3514,5.3506,5.3512,5.354,5.3567,5.357,5.3562,5.3543,5.356,5.356,5.3543,5.3595,5.3574,5.358,5.3605,5.3657,5.3661,5.3665,5.3699,5.3708,5.3715,0,0,0,0,0,0,5.3509,5.3515,5.3505,5.3546,5.3556,5.3561,5.3583,5.3571,5.3586,5.3582,5.357,5.3572,5.3607,5.361,5.3587,5.365,5.3623,5.3628,5.3647,5.3655,5.3661,5.3659,5.3556,0,0,0,0,0,5.3521,5.3543,5.3547,5.3583,5.3588,5.3585,5.3596,5.3589,5.3598,5.3602,5.3604,5.3613,5.3632,5.3644,5.366,5.3703,5.3704,5.3723,5.373,5.3735,5.3739,5.3762,5.377,5.368,5.368,5.368,0,0,5.3546,5.3552,5.3566,5.3589,5.3596,5.3618,5.3589,5.3613,5.3629,5.3606,5.3637,5.3639,5.3648,5.3686,5.3703,5.369,5.3765,5.374,5.3744,5.3746,5.3766,5.3775,5.3783,5.3683,5.3682,5.3682,0,0,5.3602,5.3609,5.364,5.3648,5.3659,5.3657,5.3664,5.3672,5.3672,5.3704,5.3687,5.3705,5.3737,5.3744,5.3752,5.3813,5.3797,5.3819,5.3852,5.3874,5.3881,5.3887,5.3908,5.3916,5.3823,5.3823,5.3823,0,5.3631,5.3664,5.3657,5.3683,5.3693,5.3675,5.3705,5.3713,5.3728,5.3735,5.372,5.376,5.3765,5.3804,5.3819,5.3827,5.3834,5.3817,5.3881,5.3887,5.3893,5.3912,5.392,5.3825,5.3825,5.3825,5.3825,0,5.3699,5.3723,5.3746,5.3763,5.3776,5.3804,5.38,5.3814,5.3806,5.3806,5.3838,5.3844,5.3861,5.387,5.3862,5.3908,5.3899,5.3883,5.3855,5.3904,5.3922,5.3929,5.3829,5.3828,5.3827,5.3827,0,0,5.3774,5.3788,5.3796,5.3804,5.3816,5.3833,5.386,5.3879,5.3891,5.3903,5.3924,5.3952,5.3938,5.3946,5.3939,5.3959,5.4005,5.394,5.394,5.3951,5.4056,5.4067,5.4076,5.3996,5.3998,5.3999,5.4054,0,5.3829,5.3877,5.3872,5.3917,5.3939,5.3922,5.3945,5.3955,5.3955,5.3973,5.3973,5.3992,5.3972,5.3977,5.3996,5.3996,5.4026,5.3992,5.4015,5.4016,5.4012,5.4085,5.4097,5.4149,5.4062,5.4063,5.4064,0,5.39,5.3916,5.3964,5.3972,5.3981,5.4003,5.4019,5.4036,5.4047,5.4045,5.4056,5.4046,5.4073,5.4046,5.4082,5.4059,5.4068,5.407,5.4072,5.4072,5.4042,5.4086,5.4166,5.4173,5.4075,5.4074,5.4073,0,5.3949,5.3982,5.4015,5.4022,5.4033,5.4049,5.4054,5.4063,5.4074,5.4088,5.4096,5.4113,5.4121,5.4134,5.4129,5.411,5.4165,5.4138,5.4164,5.4164,5.4175,5.4174,5.4256,5.4184,5.4184,5.4184,5.4183,0,5.401,5.404,5.4037,5.4057,5.409,5.4083,5.4115,5.4118,5.4127,5.4146,5.4133,5.4151,5.4144,5.4162,5.4157,5.4187,5.4192,5.4191,5.4189,5.4191,5.4191,5.4196,5.4191,5.4186,5.4185,5.4185,5.4184,0,5.4069,5.4069,5.4103,5.4112,5.4115,5.4138,5.4145,5.4164,5.4164,5.4189,5.4194,5.4194,5.4215,5.4211,5.4233,5.423,5.4267,5.4262,5.4264,5.4262,5.4288,5.4285,5.4374,5.4385,5.4308,5.4308,5.4309,0,5.4108,5.413,5.4142,5.4155,5.4162,5.4182,5.4194,5.4189,5.4202,5.4216,5.4232,5.4252,5.4267,5.4301,5.4302,5.4319,5.4313,5.4343,5.4315,5.4316,5.4311,5.431,5.4311,5.4348,5.4348,5.4349,5.435,0,5.4176,5.4175,5.4193,5.4212,5.4227,5.4241,5.4253,5.4264,5.426,5.4275,5.4297,5.4309,5.4332,5.4351,5.4368,5.4372,5.436,5.4359,5.4365,5.4367,5.4367,5.4366,5.4278,5.4356,5.4356,5.4355,5.4355,5.4355,5.4225,5.4244,5.4255,5.4276,5.4286,5.4298,5.4316,5.4319,5.4337,5.4356,5.4352,5.4376,5.4386,5.4406,5.4413,5.4431,5.4419,5.4429,5.4432,5.4434,5.4436,5.4366,5.4434,5.4434,5.4434,5.4433,5.4433,0,5.4291,5.4298,5.4317,5.4336,5.4353,5.4342,5.4355,5.4369,5.4391,5.4402,5.4418,5.4442,5.4461,5.4464,5.4482,5.4496,5.4491,5.4501,5.4499,5.45,5.4446,5.4438,5.4504,5.4504,5.4504,5.4504,5.4504,5.4504,5.4327,5.4359,5.436,5.4396,5.4402,5.4427,5.4435,5.4446,5.4455,5.4483,5.4499,5.4502,5.4509,5.4528,5.4544,5.4545,5.4551,5.4563,5.4561,5.4511,5.4503,5.4497,5.4489,5.4565,5.4565,5.4613,5.4613,5.4614]}]]